Sturgeon Bay, WI

3:44 AM CST on February 27, 2017 (GMT -0600)
Door County Cherryland

Weather History for KSUE - March, 2013

Change the Weather History Date:

Wednesday, March 13, 2013

  Actual Average Record
Temperature  
Mean Temperature 26 °F -  
Max Temperature 33 °F 36 °F 58 °F (1990)
Min Temperature 19 °F 22 °F -9 °F (1926)
Degree Days  
Heating Degree Days 39    
Moisture  
Dew Point 10 °F    
Average Humidity 54    
Maximum Humidity 74    
Minimum Humidity 32    
Precipitation  
Precipitation 0.00 in - - ()
Sea Level Pressure  
Sea Level Pressure 30.11 in    
Wind  
Wind Speed 13 mph (NW)    
Max Wind Speed 21 mph    
Max Gust Speed 26 mph    
Visibility 10 miles    
Events      
Averages and records for this station are not official NWS values.
T = Trace of Precipitation, MM = Missing Value Source: NWS Daily Summary

Daily Weather History Graph

Daily Weather History Graph

Search for Another Location

Airport or City:

Trip Planner

Search our weather history database for the weather conditions in past years. The results will help you decide how hot, cold, wet, or windy it might be!

Date:

Astronomy

Mar. 13, 2013 Rise Set
Actual Time 7:05 AM CDT 6:53 PM CDT
Civil Twilight 6:36 AM CDT 7:22 PM CDT
Nautical Twilight 6:02 AM CDT 7:56 PM CDT
Astronomical Twilight 5:27 AM CDT 8:31 PM CDT
Moon 7:38 AM CDT (3/13) 9:17 PM CDT (3/13)
Length of Visible Light 12h 46m
Length of Day
11h 48m
Waxing Crescent, 4% of the Moon is Illuminated
Mar 13
Waxing Crescent
Mar 19
First Quarter
Mar 27
Full
Apr 2
Last Quarter
Apr 10
New

Hourly Weather History & Observations

Time (CDT) Temp. Windchill Dew Point Humidity Pressure Visibility Wind Dir Wind Speed Gust Speed Precip Events Conditions
12:15 AM 19.4 °F 6.6 °F 12.2 °F 74% 29.92 in 10.0 mi NW 12.7 mph 21.9 mph N/A   Overcast
12:55 AM 19.4 °F 6.0 °F 12.2 °F 74% 29.92 in 10.0 mi NW 13.8 mph 20.7 mph N/A   Overcast
1:15 AM 19.4 °F 5.0 °F 12.2 °F 74% 29.93 in 10.0 mi NW 16.1 mph 21.9 mph N/A   Overcast
1:55 AM 21.2 °F 6.8 °F 12.2 °F 68% 29.94 in 10.0 mi NW 17.3 mph 23.0 mph N/A   Overcast
2:15 AM 21.2 °F 6.8 °F 12.2 °F 68% 29.94 in 10.0 mi NW 17.3 mph 21.9 mph N/A   Overcast
2:35 AM 19.4 °F 5.5 °F 12.2 °F 74% 29.94 in 10.0 mi NW 15.0 mph 21.9 mph N/A   Overcast
2:55 AM 19.4 °F 5.5 °F 10.4 °F 68% 29.95 in 10.0 mi NW 15.0 mph 21.9 mph N/A   Overcast
3:15 AM 19.4 °F 6.0 °F 12.2 °F 74% 29.96 in 10.0 mi NW 13.8 mph 20.7 mph N/A   Overcast
3:55 AM 19.4 °F 5.0 °F 10.4 °F 68% 29.96 in 10.0 mi NW 16.1 mph - N/A   Overcast
4:15 AM 19.4 °F 4.5 °F 12.2 °F 74% 29.97 in 10.0 mi NW 17.3 mph 21.9 mph N/A   Overcast
4:35 AM 19.4 °F 5.5 °F 12.2 °F 74% 29.98 in 10.0 mi NW 15.0 mph 24.2 mph N/A   Overcast
4:55 AM 19.4 °F 4.1 °F 12.2 °F 74% 29.99 in 10.0 mi NW 18.4 mph 24.2 mph N/A   Overcast
5:15 AM 19.4 °F 4.5 °F 12.2 °F 74% 30.00 in 3.0 mi NW 17.3 mph 23.0 mph N/A   Overcast
5:35 AM 19.4 °F 6.0 °F 12.2 °F 74% 30.01 in 5.0 mi NW 13.8 mph 21.9 mph N/A   Overcast
5:55 AM 19.4 °F 6.0 °F 12.2 °F 74% 30.02 in 5.0 mi NW 13.8 mph - N/A   Overcast
6:15 AM 19.4 °F 6.0 °F 10.4 °F 68% 30.02 in 10.0 mi NW 13.8 mph - N/A   Overcast
6:35 AM 19.4 °F 6.6 °F 10.4 °F 68% 30.02 in 10.0 mi NW 12.7 mph 18.4 mph N/A   Overcast
6:55 AM 19.4 °F 5.5 °F 8.6 °F 63% 30.03 in 10.0 mi NW 15.0 mph 20.7 mph N/A   Overcast
7:15 AM 19.4 °F 5.0 °F 8.6 °F 63% 30.03 in 10.0 mi NW 16.1 mph 23.0 mph N/A   Overcast
7:35 AM 19.4 °F 5.0 °F 8.6 °F 63% 30.05 in 10.0 mi NW 16.1 mph 26.5 mph N/A   Overcast
7:55 AM 19.4 °F 6.6 °F 8.6 °F 63% 30.05 in 10.0 mi NW 12.7 mph 23.0 mph N/A   Overcast
8:15 AM 19.4 °F 4.1 °F 8.6 °F 63% 30.06 in 10.0 mi NW 18.4 mph 24.2 mph N/A   Overcast
8:35 AM 19.4 °F 3.6 °F 8.6 °F 63% 30.07 in 10.0 mi NW 19.6 mph 25.3 mph N/A   Mostly Cloudy
8:55 AM 21.2 °F 6.0 °F 8.6 °F 58% 30.08 in 10.0 mi NW 19.6 mph 23.0 mph N/A   Partly Cloudy
9:15 AM 21.2 °F 7.3 °F 8.6 °F 58% 30.08 in 10.0 mi NW 16.1 mph 25.3 mph N/A   Mostly Cloudy
9:35 AM 21.2 °F 5.6 °F 8.6 °F 58% 30.09 in 10.0 mi NNW 20.7 mph 25.3 mph N/A   Partly Cloudy
9:55 AM 21.2 °F 6.8 °F 8.6 °F 58% 30.11 in 10.0 mi NNW 17.3 mph 23.0 mph N/A   Scattered Clouds
10:15 AM 21.2 °F 8.3 °F 8.6 °F 58% 30.12 in 10.0 mi NNW 13.8 mph - N/A   Partly Cloudy
10:35 AM 23.0 °F 8.7 °F 8.6 °F 54% 30.13 in 10.0 mi NNW 18.4 mph 24.2 mph N/A   Clear
10:55 AM 23.0 °F 9.2 °F 8.6 °F 54% 30.13 in 10.0 mi NNW 17.3 mph 23.0 mph N/A   Clear
11:15 AM 24.8 °F 12.4 °F 6.8 °F 46% 30.14 in 10.0 mi NNW 15.0 mph 23.0 mph N/A   Partly Cloudy
11:35 AM 24.8 °F 12.4 °F 8.6 °F 50% 30.15 in 10.0 mi NNW 15.0 mph 19.6 mph N/A   Clear
11:55 AM 24.8 °F 12.9 °F 6.8 °F 46% 30.15 in 10.0 mi NNW 13.8 mph - N/A   Mostly Cloudy
12:15 PM 26.6 °F 15.7 °F 6.8 °F 43% 30.15 in 10.0 mi NW 12.7 mph - N/A   Overcast
12:35 PM 28.4 °F 16.6 °F 6.8 °F 40% 30.15 in 10.0 mi NNW 16.1 mph 20.7 mph N/A   Scattered Clouds
12:55 PM 28.4 °F 16.6 °F 6.8 °F 40% 30.15 in 10.0 mi NNW 16.1 mph - N/A   Scattered Clouds
1:15 PM 28.4 °F 18.0 °F 6.8 °F 40% 30.16 in 10.0 mi NNW 12.7 mph - N/A   Scattered Clouds
1:35 PM 28.4 °F 17.0 °F 6.8 °F 40% 30.16 in 10.0 mi NNW 15.0 mph 18.4 mph N/A   Clear
1:55 PM 28.4 °F 17.0 °F 6.8 °F 40% 30.16 in 10.0 mi NNW 15.0 mph 19.6 mph N/A   Clear
2:15 PM 30.2 °F 19.3 °F 6.8 °F 37% 30.16 in 10.0 mi North 15.0 mph 20.7 mph N/A   Clear
2:35 PM 30.2 °F 19.3 °F 5.0 °F 34% 30.16 in 10.0 mi NNW 15.0 mph - N/A   Clear
2:55 PM 30.2 °F 20.8 °F 5.0 °F 34% 30.16 in 10.0 mi NNW 11.5 mph - N/A   Clear
3:15 PM 30.2 °F 19.8 °F 6.8 °F 37% 30.16 in 10.0 mi NNW 13.8 mph - N/A   Clear
3:35 PM 30.2 °F 20.2 °F 6.8 °F 37% 30.17 in 10.0 mi NNW 12.7 mph - N/A   Clear
3:55 PM 30.2 °F 21.9 °F 8.6 °F 40% 30.18 in 10.0 mi NW 9.2 mph - N/A   Clear
4:15 PM 30.2 °F 22.6 °F 6.8 °F 37% 30.18 in 10.0 mi NW 8.1 mph - N/A   Clear
4:35 PM 32.0 °F 23.6 °F 6.8 °F 35% 30.18 in 10.0 mi NW 10.4 mph - N/A   Clear
4:55 PM 32.0 °F 24.8 °F 6.8 °F 35% 30.19 in 10.0 mi WNW 8.1 mph - N/A   Clear
5:15 PM 33.8 °F 26.4 °F 6.8 °F 32% 30.19 in 10.0 mi NW 9.2 mph - N/A   Clear
5:35 PM 33.8 °F 25.8 °F 8.6 °F 35% 30.19 in 10.0 mi NW 10.4 mph - N/A   Clear
5:55 PM 33.8 °F 27.7 °F 8.6 °F 35% 30.19 in 10.0 mi NW 6.9 mph - N/A   Clear
6:15 PM 32.0 °F 25.6 °F 10.4 °F 41% 30.19 in 10.0 mi NW 6.9 mph - N/A   Clear
6:35 PM 30.2 °F 25.4 °F 12.2 °F 47% 30.20 in 10.0 mi NW 4.6 mph - N/A   Clear
6:55 PM 30.2 °F 26.7 °F 12.2 °F 47% 30.20 in 10.0 mi NW 3.5 mph - N/A   Clear
7:15 PM 30.2 °F 26.7 °F 12.2 °F 47% 30.20 in 10.0 mi NW 3.5 mph - N/A   Clear
7:35 PM 30.2 °F 25.4 °F 12.2 °F 47% 30.20 in 10.0 mi NW 4.6 mph - N/A   Clear
7:55 PM 28.4 °F 23.3 °F 12.2 °F 51% 30.21 in 10.0 mi West 4.6 mph - N/A   Clear
8:15 PM 28.4 °F 24.6 °F 12.2 °F 51% 30.21 in 10.0 mi WNW 3.5 mph - N/A   Clear
8:35 PM 28.4 °F 24.6 °F 12.2 °F 51% 30.21 in 10.0 mi NW 3.5 mph - N/A   Clear
8:55 PM 28.4 °F 23.3 °F 12.2 °F 51% 30.22 in 10.0 mi NW 4.6 mph - N/A   Clear
9:15 PM 28.4 °F 22.2 °F 12.2 °F 51% 30.22 in 10.0 mi NNW 5.8 mph - N/A   Clear
9:35 PM 26.6 °F 19.1 °F 10.4 °F 51% 30.22 in 10.0 mi North 6.9 mph - N/A   Clear
9:55 PM 26.6 °F 19.1 °F 14.0 °F 59% 30.22 in 10.0 mi NNW 6.9 mph - N/A   Clear
10:15 PM 26.6 °F 19.1 °F 12.2 °F 55% 30.22 in 10.0 mi NNW 6.9 mph - N/A   Clear
10:35 PM 26.6 °F 20.0 °F 12.2 °F 55% 30.22 in 10.0 mi NNW 5.8 mph - N/A   Clear
10:55 PM 26.6 °F 20.0 °F 12.2 °F 55% 30.22 in 10.0 mi NNW 5.8 mph - N/A   Clear
11:15 PM 26.6 °F 20.0 °F 12.2 °F 55% 30.23 in 10.0 mi NNW 5.8 mph - N/A   Clear
11:35 PM 26.6 °F 21.2 °F 12.2 °F 55% 30.23 in 10.0 mi NNW 4.6 mph - N/A   Clear
11:55 PM 24.8 °F 19.1 °F 12.2 °F 59% 30.24 in 10.0 mi NW 4.6 mph - N/A   Clear